(362143) = 2007 UP85 = 2009 DL93

Discovered at Mount Lemmon on 2009-02-28 by Mt. Lemmon Survey.

Orbit

Orbit type: Main Belt

Note: WebGL enabled browser required.

epoch2024-03-31.0
epoch JD2460400.5
perihelion date2020-11-03.49864
perihelion JD2459156.99864
argument of perihelion (°)137.71582
ascending node (°)64.74418
inclination (°)3.73579
eccentricity0.1227331
perihelion distance (AU)2.1409756
Tisserand w.r.t. Jupiter3.5
ΔV w.r.t. Earth (km/sec)9.2
semimajor axis (AU)2.4405064
mean anomaly (°)321.46240
mean daily motion (°/day)0.25851390
aphelion distance (AU)2.740
period (years)3.81
P-vector [x]-0.92285345
P-vector [y]-0.36851051
P-vector [z]-0.11198889
Q-vector [x]0.38061667
Q-vector [y]-0.82809825
Q-vector [z]-0.41156317
absolute magnitude17.42
phase slope0.15
uncertainty0
referenceMPEC 2024-E144
observations used229
oppositions13
arc length (days)7448
first opposition used2003
last opposition used2024
residual rms (arc-secs)0.72
perturbers coarse indicatorM-v
perturbers precise indicator003Ek
first observation date used2003-10-19.0
last observation date used2024-03-10.0
computer nameMPCLINUX
JD of orbit computation2456937.448591
perihelion JD uncertainty (days)5.2799E-05
argument of perihelion uncertainty (°)8.0120E-05
ascending node uncertainty (°)7.8816E-05
inclination uncertainty (°)4.9939E-06
eccentricity uncertainty 1.0039E-07
perihelion distance uncertainty (AU)2.2718E-07
Minimum Orbit Intersection Distances (in AU)
for orbit epoch: 2460400.5, reference: E2024-EE4
Mercury1.70527
Venus1.41926
Earth1.13928
Mars0.5105
Jupiter2.21426
Saturn6.43587
Uranus16.2233
Neptune27.0862

Observations

233 total observations over interval: 2003 10 19.36364 – 2024 03 10.318852
These data are available for download (format description).

Date (UT) J2000 RA J2000 Dec Magn Location Ref
2003 10 19.36364 02 17 17.41 +10 21 21.3 22.2 V 691 – Steward Observatory, Kitt Peak-Spacewatch MPS 281395
2003 10 19.39157 02 17 15.82 +10 21 14.5 22.1 V 691 – Steward Observatory, Kitt Peak-Spacewatch MPS 281395
2003 10 19.42021 02 17 14.14 +10 21 07.4 22.0 V 691 – Steward Observatory, Kitt Peak-Spacewatch MPS 281395
2005 02 09.26795 10 33 43.53 +16 05 20.1 20.2 V 691 – Steward Observatory, Kitt Peak-Spacewatch MPS 281395
2005 02 09.29673 10 33 42.06 +16 05 30.6 20.2 V 691 – Steward Observatory, Kitt Peak-Spacewatch MPS 281395
2005 02 09.32200 10 33 40.73 +16 05 40.4 20.0 V 691 – Steward Observatory, Kitt Peak-Spacewatch MPS 281395
2007 10 30.30399 03 31 35.13 +17 20 20.1 21.0 V 691 – Steward Observatory, Kitt Peak-Spacewatch MPS 225133
2007 10 30.32163 03 31 34.13 +17 20 18.0 21.0 V 691 – Steward Observatory, Kitt Peak-Spacewatch MPS 225133
2007 10 30.33926 03 31 33.16 +17 20 15.8 21.3 V 691 – Steward Observatory, Kitt Peak-Spacewatch MPS 225133
2007 11 03.25104 03 27 53.27 +17 11 12.7 21.1 V 691 – Steward Observatory, Kitt Peak-Spacewatch MPS 225133
2007 11 03.26877 03 27 52.21 +17 11 10.7 20.8 V 691 – Steward Observatory, Kitt Peak-Spacewatch MPS 225133
2007 11 03.28641 03 27 51.14 +17 11 08.2 20.8 V 691 – Steward Observatory, Kitt Peak-Spacewatch MPS 225133
2007 11 05.33702 03 25 50.59 +17 06 05.4 20.5 V G96 – Mt. Lemmon Survey MPS 281395
2007 11 05.34200 03 25 50.30 +17 06 04.6 20.6 V G96 – Mt. Lemmon Survey MPS 281395
2007 11 05.34699 03 25 49.98 +17 06 03.7 20.6 V G96 – Mt. Lemmon Survey MPS 281395
2007 11 05.35202 03 25 49.69 +17 06 03.2 20.9 V G96 – Mt. Lemmon Survey MPS 281395
2007 11 14.15796 03 16 48.87 +16 42 55.2 20.5 V 691 – Steward Observatory, Kitt Peak-Spacewatch MPS 281395
2007 11 14.17558 03 16 47.75 +16 42 51.9 20.3 V 691 – Steward Observatory, Kitt Peak-Spacewatch MPS 281395
2007 11 14.19321 03 16 46.60 +16 42 50.0 20.5 V 691 – Steward Observatory, Kitt Peak-Spacewatch MPS 281395
2009 02 28.38892 12 39 40.10 +02 20 05.5 19.7 V G96 – Mt. Lemmon Survey MPS 278873
2009 02 28.39579 12 39 39.88 +02 20 07.1 20.2 V G96 – Mt. Lemmon Survey MPS 278873
2009 02 28.40266 12 39 39.67 +02 20 08.8 19.7 V G96 – Mt. Lemmon Survey MPS 278873
2009 02 28.40946 12 39 39.45 +02 20 10.5 19.9 V G96 – Mt. Lemmon Survey MPS 278873
2009 03 01.39532 12 39 09.75 +02 24 22.7   691 – Steward Observatory, Kitt Peak-Spacewatch MPS 278873
2009 03 01.41058 12 39 09.22 +02 24 26.9   691 – Steward Observatory, Kitt Peak-Spacewatch MPS 278873
2009 03 01.42584 12 39 08.74 +02 24 30.5   691 – Steward Observatory, Kitt Peak-Spacewatch MPS 278873
2009 03 08.28600 12 34 58.83 +02 56 20.5 20.1 V G96 – Mt. Lemmon Survey MPS 280483
2009 03 08.29152 12 34 58.54 +02 56 22.4 19.9 V G96 – Mt. Lemmon Survey MPS 280483
2009 03 08.29709 12 34 58.29 +02 56 23.8 20.1 V G96 – Mt. Lemmon Survey MPS 280483
2009 03 08.30253 12 34 58.11 +02 56 25.3 20.1 V G96 – Mt. Lemmon Survey MPS 280483
2009 03 16.21211 12 28 51.61 +03 36 36.1 19.9 V 691 – Steward Observatory, Kitt Peak-Spacewatch MPS 281395
2009 03 16.23367 12 28 50.47 +03 36 42.6 19.9 V 691 – Steward Observatory, Kitt Peak-Spacewatch MPS 281396
2009 03 16.25202 12 28 49.52 +03 36 48.5 19.8 V 691 – Steward Observatory, Kitt Peak-Spacewatch MPS 281396
2009 03 18.04343 12 27 17.46 +03 46 00.7 20.0 V J75 – OAM Observatory, La Sagra MPS 280483
2009 03 18.05627 12 27 16.76 +03 46 05.2 19.2 V J75 – OAM Observatory, La Sagra MPS 280483
2009 03 18.06895 12 27 16.07 +03 46 09.2 18.7 V J75 – OAM Observatory, La Sagra MPS 280483
2009 03 18.19222 12 27 10.06 +03 46 48.0   691 – Steward Observatory, Kitt Peak-Spacewatch MPS 281396
2009 03 18.20981 12 27 09.11 +03 46 53.8   691 – Steward Observatory, Kitt Peak-Spacewatch MPS 281396
2009 03 18.22740 12 27 08.16 +03 46 59.1   691 – Steward Observatory, Kitt Peak-Spacewatch MPS 281396
2009 03 19.02275 12 26 26.29 +03 51 02.0 18.9 V J75 – OAM Observatory, La Sagra MPS 280483
2009 03 19.03584 12 26 25.61 +03 51 06.3 19.9 V J75 – OAM Observatory, La Sagra MPS 280483
2009 03 19.04884 12 26 24.90 +03 51 09.6 19.6 V J75 – OAM Observatory, La Sagra MPS 280483
2009 03 21.00573 12 24 40.82 +04 01 07.5 19.1 V J75 – OAM Observatory, La Sagra MPS 281396
2009 03 21.01914 12 24 40.08 +04 01 11.6 19.9 V J75 – OAM Observatory, La Sagra MPS 281396
2009 03 21.03251 12 24 39.31 +04 01 15.4 19.2 V J75 – OAM Observatory, La Sagra MPS 281396
2009 03 22.94904 12 22 55.68 +04 10 49.9 19.9 V J75 – OAM Observatory, La Sagra MPS 281396
2009 03 22.96248 12 22 54.99 +04 10 53.5 19.9 V J75 – OAM Observatory, La Sagra MPS 281396
2009 03 22.97583 12 22 54.14 +04 10 56.8 19.6 V J75 – OAM Observatory, La Sagra MPS 281396
2009 03 24.19495 12 21 47.69 +04 16 56.0 19.5 V 691 – Steward Observatory, Kitt Peak-Spacewatch MPS 281396
2009 03 24.21260 12 21 46.72 +04 17 01.1 19.6 V 691 – Steward Observatory, Kitt Peak-Spacewatch MPS 281396
2009 03 24.23024 12 21 45.66 +04 17 06.1 19.8 V 691 – Steward Observatory, Kitt Peak-Spacewatch MPS 281396
2009 03 27.32485 12 18 55.18 +04 31 39.7 19.9 V G96 – Mt. Lemmon Survey MPS 281396
2009 03 27.33352 12 18 54.72 +04 31 42.1 19.8 V G96 – Mt. Lemmon Survey MPS 281396
2009 03 27.34233 12 18 54.18 +04 31 44.3 19.8 V G96 – Mt. Lemmon Survey MPS 281396
2009 03 27.35117 12 18 53.67 +04 31 47.1 19.7 V G96 – Mt. Lemmon Survey MPS 281396
2009 04 05.14445 12 11 03.60 +05 06 50.5   691 – Steward Observatory, Kitt Peak-Spacewatch MPS 283593
2009 04 05.16217 12 11 02.64 +05 06 54.3   691 – Steward Observatory, Kitt Peak-Spacewatch MPS 283593
2009 04 05.17989 12 11 01.71 +05 06 57.4   691 – Steward Observatory, Kitt Peak-Spacewatch MPS 283593
2010 09 06.24509 22 15 11.48 -17 14 22.6 20.7 V G96 – Mt. Lemmon Survey MPS 347179
2010 09 06.25152 22 15 11.12 -17 14 24.3 20.9 V G96 – Mt. Lemmon Survey MPS 347179
2010 09 06.25796 22 15 10.76 -17 14 25.6 21.1 V G96 – Mt. Lemmon Survey MPS 347179
2010 09 06.26446 22 15 10.44 -17 14 27.5 20.1 V G96 – Mt. Lemmon Survey MPS 347179
2011 12 01.48214 04 33 31.981 +22 26 57.07 21.2 g F51 – Pan-STARRS 1, Haleakala MPS 402457
2011 12 01.49555 04 33 31.055 +22 26 55.97 21.3 g F51 – Pan-STARRS 1, Haleakala MPS 402457
2011 12 01.50913 04 33 30.138 +22 26 55.46 20.9 r F51 – Pan-STARRS 1, Haleakala MPS 402457
2011 12 01.52200 04 33 29.248 +22 26 54.62 20.6 r F51 – Pan-STARRS 1, Haleakala MPS 402457
2013 04 08.65776 14 34 38.35 -11 05 24.6 19.6 V E12 – Siding Spring Survey MPS 462756
2013 04 08.67206 14 34 37.77 -11 05 22.7 19.9 V E12 – Siding Spring Survey MPS 462756
2013 04 08.68618 14 34 37.09 -11 05 20.1 19.7 V E12 – Siding Spring Survey MPS 462756
2013 04 08.70037 14 34 36.40 -11 05 17.7 20.5 V E12 – Siding Spring Survey MPS 462756
2013 04 13.46566 14 30 54.124 -10 53 36.86 19.8 w F51 – Pan-STARRS 1, Haleakala MPS 464086
2013 04 13.46632 14 30 54.083 -10 53 36.69 19.8 w F51 – Pan-STARRS 1, Haleakala MPS 464086
2013 04 13.47956 14 30 53.389 -10 53 34.68 19.8 w F51 – Pan-STARRS 1, Haleakala MPS 464086
2013 04 13.48021 14 30 53.357 -10 53 34.60 19.8 w F51 – Pan-STARRS 1, Haleakala MPS 464086
2013 04 13.49343 14 30 52.658 -10 53 32.53 19.8 w F51 – Pan-STARRS 1, Haleakala MPS 464086
2013 04 13.49409 14 30 52.627 -10 53 32.41 19.9 w F51 – Pan-STARRS 1, Haleakala MPS 464086
2013 04 13.50732 14 30 51.924 -10 53 30.28 19.9 w F51 – Pan-STARRS 1, Haleakala MPS 464086
2013 04 13.50798 14 30 51.890 -10 53 30.23 19.9 w F51 – Pan-STARRS 1, Haleakala MPS 464086
2013 05 07.31514 14 09 03.13 -09 53 22.5 19.6 V G96 – Mt. Lemmon Survey MPS 467458
2013 05 07.32166 14 09 02.77 -09 53 21.8 19.6 V G96 – Mt. Lemmon Survey MPS 467458
2013 05 07.32799 14 09 02.41 -09 53 20.4 19.6 V G96 – Mt. Lemmon Survey MPS 467458
2013 05 07.33441 14 09 02.08 -09 53 20.4 19.6 V G96 – Mt. Lemmon Survey MPS 467458
2013 05 09.40031 14 07 15.974 -09 49 34.78 19.7 w F51 – Pan-STARRS 1, Haleakala MPS 467458
2013 05 09.42825 14 07 14.481 -09 49 31.82 19.7 w F51 – Pan-STARRS 1, Haleakala MPS 467458
2013 05 09.44222 14 07 13.738 -09 49 30.41 19.8 w F51 – Pan-STARRS 1, Haleakala MPS 467458
2013 06 05.23531 13 53 34.33 -09 52 20.1 20.7 V G96 – Mt. Lemmon Survey MPS 469861
2013 06 05.24135 13 53 34.26 -09 52 20.3 20.3 V G96 – Mt. Lemmon Survey MPS 469861
